Pagina principală
METAR-TAF:

METAR-TAF

Aeroporturi :

Iwo Jima, Japonia

Latitudine: 24-47N, longitudine: 141-19E, elevație: 113 m

Observații meteo curente

Raportul a fost făcut în urmă cu 2 ore și 13 de minute, la 09:00 UTC
Vânt 8 kt de la Sud
Temperatură 27°C
Umiditate 79%
Presiune 1009 hPa
Vizibilitate de 10 km sau mai mult
Nori puțini la o înălțime de 1500 picior
Nori împrăștiați la o înălțime de 10000 picior
Nori fragmentați la o înălțime de 23000 picior

METAR: RJAW 300900Z 18008KT 9999 FEW015 SCT100 BKN230 27/23 Q1009 RMK 2CU015 3AC100 A2981

Ora: 20:13 (11:13 UTC)


TAF: lipsă

Observații și prognoze meteo pentru peste 4.000 de aeroporturi (rapoarte METAR și TAF).

Stațiile disponibile sunt reprezentate pe hartă prin puncte galbene și roșii.

Țineți indicatorul mouse-ului pe punctul dorit pentru a vedea denumirea stației.

Apoi, faceți clic pentru a vedea observațiile și prognozele meteorologice.

Pentru a schimba harta: Pentru mărire, faceți clic pe butoanele verzi cu cruce neagră; pentru micșorare, pe butonul verde cu o liniuță; pentru hărți învecinate, pe săgețile verzi.


METAR-TAF: